Regional Weather Roundup
Issued by NWS

Home | Current Version | Previous Version | Text Only | Print | Product List | Glossary Off
Versions: 1 2 3 4 5 6 7 8 9 10 11 12 13 14 15 16 17 18 19 20 21 22 23 24 25 26 27 28

000
ASUS45 KTFX 262110
RWRMT
MONTANA REGIONAL WEATHER ROUNDUP
NATIONAL WEATHER SERVICE GREAT FALLS MT
300 PM MDT WED APR 26 2017

NOTE: "FAIR" INDICATES FEW OR NO CLOUDS BELOW 12000 FEET WITH NO
SIGNIFICANT WEATHER AND/OR OBSTRUCTIONS TO VISIBILITY.

MTZ001>007-043-262200-
WEST OF THE DIVIDE

CITY           SKY/WX    TMP DP  RH WIND       PRES   REMARKS
KALISPELL      LGT RAIN  46  43  89 S9        29.65F
MISSOULA       CLOUDY    50  38  63 N6        29.69F
BUTTE          LGT RAIN  41  32  70 S8        29.67R
MULLAN PASS    CLOUDY    32  31  96 SW7       29.66F WCI  26
ANACONDA         N/A     46  28  49 W17G29    29.66R
DEER LODGE       N/A     45  37  76 N8        29.68F
EUREKA           N/A     48  37  66 SE6       29.64S
HAMILTON         N/A     52  25  35 SE6       29.67F
LIBBY            N/A     48  43  81 NW6       29.64F
PLAINS           N/A     53  37  54 S12       29.69F
$$

MTZ008-052>055-262200-
SOUTHWEST MONTANA

CITY           SKY/WX    TMP DP  RH WIND       PRES   REMARKS
BOZEMAN        MOSUNNY   54  34  46 N3        29.62F
DILLON         CLOUDY    48  28  46 W13       29.66S
W YELLOWSTONE  CLOUDY    37  28  70 SW16      29.72F WCI  28
THREE FORKS      N/A     53 -25   3 W13       29.67S
TWIN BRIDGES     N/A     52  32  46 SE14      29.68F
$$

MTZ009-010-012-014-046-048-049-054-262200-
EAST SLOPES AND CENTRAL MONTANA

CITY           SKY/WX    TMP DP  RH WIND       PRES   REMARKS
CUT BANK       PTSUNNY   46  31  55 VRB5      29.62F
GREAT FALLS    PTSUNNY   52  36  54 E5        29.61F
MALMSTROM AFB  PTSUNNY   52  36  54 CALM      29.61F
HELENA         PTSUNNY   50  43  77 W14       29.64R
AUGUSTA        PTSUNNY   50  35  56 N7        29.59F
BOWMANS CRNR     N/A     52  37  55 N12G17    29.57F
CHOTEAU          N/A     54  34  47 VRB5      29.62F
FAIRFIELD        N/A     51  39  64 SE5       29.59F
POWER          PTSUNNY   49  35  59 S6        29.60F
RAYNESFORD     LGT RAIN  49  37  63 NE8       29.61F
ULM              N/A     53  39  59 NE6       29.59F
$$

MTZ011-013-016-021-045-047-050-051-262200-
NORTH CENTRAL MONTANA

CITY           SKY/WX    TMP DP  RH WIND       PRES   REMARKS
HAVRE          CLOUDY    54  36  50 NE6       29.64F
LEWISTOWN      LGT RAIN  43  40  89 SE10      29.65S
CHINOOK          N/A     54  34  47 E15       29.66F
DENTON         LGT RAIN  45  39  81 MISG      29.62S
FORT BENTON      N/A     52  41  66 MISG      29.64
GEYSER         PTSUNNY   47  37  69 E5        29.63F
GRASS RANGE    PTSUNNY   46  38  71 S15       29.62F
JUDITH GAP     PTSUNNY   42  39  88 SW12      29.64S
STANFORD       PTSUNNY   44  36  75 NW5       29.64F
WINIFRED       LGT RAIN  46  38  74 E14       29.64F
$$

MTZ017>020-022>027-061-062-262200-
NORTHEAST MONTANA

CITY           SKY/WX    TMP DP  RH WIND       PRES   REMARKS
GLASGOW        SUNNY     47  25  42 S10       29.76F
JORDAN           N/A     46  30  53 SE10G16   29.73F
SIDNEY         SUNNY     49  24  37 E8        29.80F
WOLF POINT     SUNNY     51  23  33 E8        29.78F
MALTA          PTSUNNY   52  30  43 SE12G20   29.71F
PLENTYWOOD       N/A     46  19  34 SE9       29.80F
POPLAR           N/A     46  21  36 NE6       29.79F
SCOBEY           N/A     48  19  31 E6        29.79F
$$

MTZ028>42-056>058-262200-
SOUTHCENTRAL AND SOUTHEAST MONTANA

CITY           SKY/WX    TMP DP  RH WIND       PRES   REMARKS
BAKER          SUNNY     42  26  53 SE6       29.77F
BILLINGS       MOSUNNY   47  38  71 SE7       29.68F
LIVINGSTON     PTSUNNY   51  36  56 VRB5      29.63F
MILES CITY     CLOUDY    45  29  53 S10       29.76F
BIG TIMBER     SUNNY     48  37  66 W7        29.66F
EKALAKA          N/A     42  26  53 N5        29.75F
LAUREL           N/A     49  33  54 NE2       29.69S
ROUNDUP          N/A     51  34  52 SE7       29.62F
$$

REGIONAL REPORTS...DAKOTAS

CITY           SKY/WX    TMP DP  RH WIND       PRES   REMARKS
WILLISTON      SUNNY     50  23  34 SE7       29.81F
MINOT          SUNNY     49  22  34 NE16G25   29.79F
DICKINSON      SUNNY     45  21  38 N6        29.75F
BEACH            N/A     45  25  45 E7G13     29.80F
TIOGA            N/A     45  19  36 NE12G18   29.82F
WATFORD CITY     N/A     48  21  34 VRB7G15   29.80F
BISMARCK       PTSUNNY   46  27  47 N15G22    29.77F
GRAND FORKS    SNOW      31  29  92 N16       29.79R VSB 1/2 WCI  20
FARGO          LGT SNOW  29  28  96 N17       29.74S VSB 3/4 WCI  17
BUFFALO SD       N/A     44  26  49 VRB6      29.69F
RAPID CITY     CLOUDY    37  27  67 N10       29.78S WCI  30
$$

REGIONAL REPORTS...WYOMING/IDAHO/WASHINGTON

CITY           SKY/WX    TMP DP  RH WIND       PRES   REMARKS
GILLETTE       MOSUNNY   43  36  76 N7        29.71F
SHERIDAN       CLOUDY    34  28  79 W6        29.74F WCI  29
CODY           LGT RAIN  48  35  60 VRB5      29.66F
YELLOWSTONE LA   N/A     36  26  67 VRB7      29.74F WCI  30
IDAHO FALLS    CLOUDY    51  38  60 S17       29.73F
SALMON         CLOUDY    46  37  71 N7        29.70S
BOISE          LGT RAIN  47  43  86 W10       29.80R
SPOKANE        CLOUDY    54  31  41 SW18G26   29.67F
$$

REGIONAL REPORTS...ALBERTA

CITY           SKY/WX    TMP DP  RH WIND       PRES   REMARKS
EDMONTON       CLOUDY    34  28  80 E8        29.75F WCI  27
CALGARY        CLOUDY    37  30  75 S10       29.64F WCI  30
LETHBRIDGE     PTSUNNY   46  37  71 VRB8      29.63F
MEDICINE HAT   CLOUDY    41  39  93 NE7       29.68F
WATERTON GATE    N/A     48  32  53 SW10        N/A
CARDSTON         N/A     48  32  53 SE3         N/A
MILK RIVER       N/A     50  37  62 SW10        N/A
ONEFOUR          N/A     46  37  71 E8          N/A
$$

REGIONAL REPORTS...SASKATCHEWAN

CITY           SKY/WX    TMP DP  RH WIND       PRES   REMARKS
SWIFT CURRENT  CLOUDY    45  27  49 SE21G29   29.72F
REGINA         MOSUNNY   45  19  36 E12G18    29.86F
SASKATOON      PTSUNNY   43  21  42 E10G22    29.88F
VAL MARIE        N/A     46  27  46 S14G23      N/A
ROCKGLEN         N/A     43  25  49 SE12G17     N/A
ASSINIBOIA       N/A     36  34  93 E10         N/A  WCI  28
$$




USA.gov is the U.S. government's official web portal to all federal, state and local government web resources and services.